{"data":{"norad_id":63053,"epoch":"2026-05-25T01:27:37.586016Z","epoch_age_seconds":69960,"freshness":"FRESH","line1":"1 63053U 25035B   26145.06085169  .00207886  00000+0  15801-2 0  9992","line2":"2 63053  42.9997 274.8615 0002296  51.0927 309.0145 15.70888869 73120","mean_motion":15.70888869,"eccentricity":0.0002296,"inclination_deg":42.9997,"raan_deg":274.8615,"arg_perigee_deg":51.0927,"mean_anomaly_deg":309.0145,"bstar":0.0015801,"rev_number":7312,"period_min":91.667846683303,"perigee_km":354.80914898922,"apogee_km":357.90162789399,"semimajor_km":6734.4923884416,"source":"CELESTRAK","updated_at":"2026-05-25T13:38:19.871038Z"}}